When you browse on this site, cookies collect data to enhance your experience and personalize the content and advertising you see.
Visit our Privacy Policy to learn more. By continuing to use the site, you agree to this use of cookies and data.
  • en France
  • Liste des pays
  • À 7 jours
  • Température de l'eau
  • Carte satellitaire
  • Carte météo
  • Widgets météo
  • user-avatar
    Se connecter

    Météo par heure à Kalgoorlie

    Ce jour, 25 Mai, Samedi

    Heure Température Précipitation Vent Pression Humidité
    00:00 +14°C° 0 mm 4 m/s 735 mmHg 54%
    01:00 +13°C° 0 mm 4 m/s 735 mmHg 58%
    02:00 +13°C° 0 mm 4 m/s 735 mmHg 64%
    03:00 +12°C° 0 mm 4 m/s 735 mmHg 68%
    04:00 +12°C° 0 mm 3 m/s 735 mmHg 71%
    05:00 +12°C° 0 mm 3 m/s 735 mmHg 75%
    06:00 +12°C° 0 mm 3 m/s 735 mmHg 73%
    07:00 +12°C° 0 mm 3 m/s 735 mmHg 72%
    08:00 +13°C° 0 mm 3 m/s 736 mmHg 71%
    09:00 +14°C° 0 mm 3 m/s 736 mmHg 64%
    10:00 +17°C° 0 mm 3 m/s 736 mmHg 57%
    11:00 +18°C° 0 mm 3 m/s 736 mmHg 50%
    12:00 +19°C° 0 mm 3 m/s 735 mmHg 47%
    13:00 +19°C° 0 mm 3 m/s 735 mmHg 44%
    14:00 +20°C° 0 mm 3 m/s 734 mmHg 41%
    15:00 +19°C° 0 mm 2 m/s 734 mmHg 42%
    16:00 +19°C° 0 mm 2 m/s 734 mmHg 43%
    17:00 +18°C° 0 mm 2 m/s 734 mmHg 44%
    18:00 +18°C° 0 mm 2 m/s 735 mmHg 47%
    19:00 +17°C° 0 mm 2 m/s 735 mmHg 49%
    20:00 +16°C° 0 mm 2 m/s 735 mmHg 51%
    21:00 +16°C° 0 mm 2 m/s 735 mmHg 53%
    22:00 +14°C° 0 mm 3 m/s 735 mmHg 56%
    23:00 +14°C° 0 mm 3 m/s 736 mmHg 58%

    Demain, 26 Mai, Dimanche

    Heure Température Précipitation Vent Pression Humidité
    00:00 +13°C° 0 mm 3 m/s 736 mmHg 63%
    01:00 +13°C° 0 mm 3 m/s 736 mmHg 69%
    02:00 +12°C° 0 mm 3 m/s 736 mmHg 74%
    03:00 +12°C° 0 mm 3 m/s 735 mmHg 76%
    04:00 +11°C° 0 mm 3 m/s 735 mmHg 79%
    05:00 +11°C° 0 mm 3 m/s 735 mmHg 81%
    06:00 +11°C° 0 mm 3 m/s 736 mmHg 79%
    07:00 +12°C° 0 mm 3 m/s 736 mmHg 77%
    08:00 +12°C° 0 mm 3 m/s 736 mmHg 75%
    09:00 +14°C° 0 mm 3 m/s 736 mmHg 68%
    10:00 +15°C° 0 mm 4 m/s 736 mmHg 61%
    11:00 +18°C° 0 mm 4 m/s 736 mmHg 54%
    12:00 +18°C° 0 mm 3 m/s 736 mmHg 51%
    13:00 +19°C° 0 mm 3 m/s 735 mmHg 47%
    14:00 +19°C° 0 mm 3 m/s 735 mmHg 44%
    15:00 +19°C° 0 mm 3 m/s 735 mmHg 45%
    16:00 +18°C° 0 mm 3 m/s 735 mmHg 46%
    17:00 +18°C° 0 mm 3 m/s 735 mmHg 47%
    18:00 +17°C° 0 mm 4 m/s 736 mmHg 50%
    19:00 +15°C° 0 mm 4 m/s 736 mmHg 53%
    20:00 +15°C° 0 mm 4 m/s 737 mmHg 56%
    21:00 +14°C° 0 mm 4 m/s 737 mmHg 59%
    22:00 +13°C° 0 mm 4 m/s 737 mmHg 63%
    23:00 +13°C° 0 mm 4 m/s 737 mmHg 67%

    Après-demain, 27 Mai, Lundi

    Heure Température Précipitation Vent Pression Humidité
    00:00 +12°C° 0 mm 4 m/s 737 mmHg 68%
    01:00 +12°C° 0 mm 4 m/s 737 mmHg 70%
    02:00 +11°C° 0 mm 4 m/s 737 mmHg 72%
    03:00 +11°C° 0 mm 3 m/s 737 mmHg 73%
    04:00 +10°C° 0 mm 3 m/s 737 mmHg 74%
    05:00 +10°C° 0 mm 3 m/s 737 mmHg 75%
    06:00 +10°C° 0 mm 4 m/s 737 mmHg 73%
    07:00 +11°C° 0 mm 4 m/s 738 mmHg 71%
    08:00 +11°C° 0 mm 4 m/s 738 mmHg 69%
    09:00 +13°C° 0 mm 4 m/s 738 mmHg 63%
    10:00 +14°C° 0 mm 4 m/s 738 mmHg 57%
    11:00 +17°C° 0 mm 4 m/s 738 mmHg 51%
    12:00 +17°C° 0 mm 4 m/s 737 mmHg 47%
    13:00 +18°C° 0 mm 3 m/s 737 mmHg 43%
    14:00 +19°C° 0 mm 3 m/s 736 mmHg 40%
    15:00 +18°C° 0 mm 3 m/s 736 mmHg 40%
    16:00 +18°C° 0 mm 3 m/s 736 mmHg 41%
    17:00 +17°C° 0 mm 3 m/s 736 mmHg 42%
    18:00 +16°C° 0 mm 3 m/s 736 mmHg 44%
    19:00 +16°C° 0 mm 3 m/s 737 mmHg 46%
    20:00 +14°C° 0 mm 3 m/s 737 mmHg 48%
    21:00 +13°C° 0 mm 3 m/s 737 mmHg 49%
    22:00 +13°C° 0 mm 3 m/s 737 mmHg 51%
    23:00 +12°C° 0 mm 3 m/s 737 mmHg 52%

    28 Mai, Mardi

    Heure Température Précipitation Vent Pression Humidité
    00:00 +12°C° 0 mm 3 m/s 737 mmHg 53%
    01:00 +12°C° 0 mm 3 m/s 737 mmHg 54%
    02:00 +11°C° 0 mm 3 m/s 737 mmHg 55%
    03:00 +11°C° 0 mm 3 m/s 736 mmHg 57%
    04:00 +10°C° 0 mm 3 m/s 736 mmHg 59%
    05:00 +10°C° 0 mm 3 m/s 736 mmHg 61%
    06:00 +10°C° 0 mm 3 m/s 737 mmHg 60%
    07:00 +11°C° 0 mm 3 m/s 737 mmHg 59%
    08:00 +11°C° 0 mm 3 m/s 737 mmHg 58%
    09:00 +13°C° 0 mm 3 m/s 737 mmHg 52%
    10:00 +16°C° 0 mm 3 m/s 737 mmHg 46%
    11:00 +17°C° 0 mm 4 m/s 737 mmHg 40%
    12:00 +18°C° 0 mm 3 m/s 736 mmHg 37%
    13:00 +19°C° 0 mm 3 m/s 736 mmHg 35%
    14:00 +19°C° 0 mm 3 m/s 735 mmHg 33%
    15:00 +19°C° 0 mm 3 m/s 735 mmHg 35%
    16:00 +18°C° 0 mm 3 m/s 735 mmHg 37%
    17:00 +18°C° 0 mm 3 m/s 735 mmHg 39%
    18:00 +17°C° 0 mm 3 m/s 736 mmHg 41%
    19:00 +16°C° 0 mm 3 m/s 736 mmHg 44%
    20:00 +14°C° 0 mm 3 m/s 737 mmHg 46%
    21:00 +14°C° 0 mm 3 m/s 737 mmHg 49%
    22:00 +13°C° 0 mm 3 m/s 737 mmHg 52%
    23:00 +13°C° 0 mm 3 m/s 737 mmHg 55%

    29 Mai, Mercredi

    Heure Température Précipitation Vent Pression Humidité
    00:00 +12°C° 0 mm 3 m/s 736 mmHg 58%
    01:00 +12°C° 0 mm 3 m/s 736 mmHg 61%
    02:00 +12°C° 0 mm 3 m/s 736 mmHg 64%
    03:00 +11°C° 0 mm 3 m/s 736 mmHg 67%
    04:00 +11°C° 0 mm 3 m/s 736 mmHg 69%
    05:00 +10°C° 0 mm 3 m/s 736 mmHg 72%
    06:00 +11°C° 0 mm 3 m/s 737 mmHg 71%
    07:00 +11°C° 0 mm 3 m/s 737 mmHg 69%
    08:00 +11°C° 0 mm 3 m/s 738 mmHg 68%
    09:00 +13°C° 0 mm 4 m/s 738 mmHg 61%
    10:00 +15°C° 0 mm 4 m/s 737 mmHg 55%
    11:00 +17°C° 0 mm 4 m/s 737 mmHg 48%
    12:00 +18°C° 0 mm 4 m/s 737 mmHg 45%
    13:00 +19°C° 0 mm 4 m/s 736 mmHg 41%
    14:00 +20°C° 0 mm 4 m/s 735 mmHg 38%
    15:00 +19°C° 0 mm 4 m/s 736 mmHg 40%
    16:00 +18°C° 0 mm 4 m/s 736 mmHg 42%
    17:00 +18°C° 0 mm 4 m/s 736 mmHg 44%
    18:00 +17°C° 0 mm 4 m/s 736 mmHg 47%
    19:00 +15°C° 0 mm 4 m/s 737 mmHg 51%
    20:00 +14°C° 0 mm 4 m/s 737 mmHg 54%
    21:00 +14°C° 0 mm 5 m/s 737 mmHg 59%
    22:00 +13°C° 0 mm 5 m/s 737 mmHg 64%
    23:00 +13°C° 0 mm 6 m/s 737 mmHg 69%

    30 Mai, Jeudi

    Heure Température Précipitation Vent Pression Humidité
    00:00 +12°C° 0 mm 5 m/s 737 mmHg 72%
    01:00 +12°C° 0 mm 5 m/s 737 mmHg 74%
    02:00 +11°C° 0 mm 4 m/s 737 mmHg 77%
    03:00 +11°C° 0 mm 4 m/s 737 mmHg 78%
    04:00 +10°C° 0 mm 4 m/s 737 mmHg 79%
    05:00 +10°C° 0 mm 4 m/s 737 mmHg 80%
    06:00 +10°C° 0 mm 5 m/s 737 mmHg 77%
    07:00 +10°C° 0 mm 6 m/s 737 mmHg 75%
    08:00 +10°C° 0 mm 6 m/s 737 mmHg 72%
    09:00 +12°C° 0 mm 7 m/s 737 mmHg 65%
    10:00 +15°C° 0 mm 7 m/s 737 mmHg 58%
    11:00 +16°C° 0 mm 7 m/s 737 mmHg 51%
    12:00 +17°C° 0 mm 7 m/s 736 mmHg 47%
    13:00 +18°C° 0 mm 7 m/s 736 mmHg 43%
    14:00 +20°C° 0 mm 7 m/s 735 mmHg 39%
    15:00 +19°C° 0 mm 6 m/s 735 mmHg 41%
    16:00 +19°C° 0 mm 5 m/s 735 mmHg 42%
    17:00 +18°C° 0 mm 4 m/s 736 mmHg 43%
    18:00 +18°C° 0 mm 4 m/s 736 mmHg 45%
    19:00 +17°C° 0 mm 4 m/s 736 mmHg 47%
    20:00 +15°C° 0 mm 4 m/s 737 mmHg 49%
    21:00 +15°C° 0 mm 4 m/s 736 mmHg 50%
    22:00 +14°C° 0 mm 4 m/s 736 mmHg 52%
    23:00 +14°C° 0 mm 5 m/s 736 mmHg 54%
    Voir plus